Regional Weather Roundup
Issued by NWS

Home | Current Version | Previous Version | Graphics & Text | Print | Product List | Glossary On
Versions: 1 2 3 4 5 6 7 8 9 10 11 12 13 14 15 16 17 18 19 20 21 22 23 24 25 26 27 28 29 30 31 32 33 34 35 36 37 38 39 40 41 42 43 44 45 46 47 48 49 50
000
ASUS43 KDMX 201606
RWRIA

WEATHER ROUNDUP FOR IOWA
NATIONAL WEATHER SERVICE DES MOINES IA
1100 AM CDT SUN AUG 20 2017

NOTE: "FAIR" INDICATES FEW OR NO CLOUDS BELOW 12,000 FEET WITH NO
SIGNIFICANT WEATHER AND/OR OBSTRUCTIONS TO VISIBILITY.

* - THESE STATIONS ARE NOT NWS STATIONS...THUS NOT UNDER NWS
QUALITY CONTROL.  THEY ALSO DO NOT REPORT WEATHER SUCH
AS PRECIPITATION OR FOG.

IAZ001>003-012>014-020>022-031>034-043>046-201700-
   NORTHWEST IOWA

CITY           SKY/WX    TMP DP  RH WIND       PRES   REMARKS
CARROLL *      SUNNY     77  68  73 SE6G13    29.98R
CHEROKEE *     PTSUNNY   78  65  63 CALM      29.97F HX  80
DENISON *      CLOUDY    77  66  69 CALM      30.00R
LE MARS *      SUNNY    100 N/A N/A SE10      29.95F
ORANGE CITY *  SUNNY     77  66  69 SE5       29.97S
SHELDON *      SUNNY     77  64  65 S8        29.96S
SIOUX CITY     SUNNY     76  67  73 SE14      29.96S
SPENCER        SUNNY     78  64  61 SW8       29.98R HX  80
STORM LAKE *   SUNNY     77  66  69 SW8       29.99S
$$

IAZ055>058-069>071-079>083-090>094-201700-
   SOUTHWEST IOWA

CITY           SKY/WX    TMP DP  RH WIND       PRES   REMARKS
ATLANTIC *     CLOUDY    70  68  94 SW5       29.96F
AUDUBON *      CLOUDY    75  70  83 S3        29.98S
CLARINDA *     CLOUDY    68  68 100 SW15      29.99F FOG
COUNCIL BLFS * CLOUDY    68  68 100 E6        29.97S
CRESTON *      CLOUDY    70  64  83 S3        29.97S
HARLAN  *      CLOUDY    73  68  83 VRB3      30.00F
LAMONI         CLOUDY    76  66  71 SW5       29.94S
RED OAK *      CLOUDY    68  66  94 CALM      29.96S
$$

IAZ047>049-059>061-072>074-084-201700-
   CENTRAL IOWA

CITY           SKY/WX    TMP DP  RH WIND       PRES   REMARKS
AMES           MOSUNNY   78  70  76 SE7       29.97F HX  80
ANKENY *       MOSUNNY   75  66  73 VRB6      29.97S
BOONE *        MOSUNNY   77  66  69 SE9       29.98R
CHARITON *     MOSUNNY   77  66  69 SW9       29.95F
DES MOINES     PTSUNNY   78  66  66 VRB3      29.95S HX  80
GRINNELL*      CLOUDY    74  67  78 E10       29.98F
KNOXVILLE *    CLOUDY    77  64  65 SW10      29.94F
MARSHALLTOWN   MOSUNNY   74  66  76 SE13      29.98R
NEWTON *       MOSUNNY   75  68  78 SE14      29.96F
PELLA *        PTSUNNY   77  65  66 CALM      29.97F
PERRY *          N/A     77  69  75 S7        29.98R
$$

IAZ004>006-015-016-023>025-035-036-201700-
   NORTH CENTRAL IOWA

CITY           SKY/WX    TMP DP  RH WIND       PRES   REMARKS
ALGONA *       SUNNY     79  66  65 S9        29.98F HX  81
CLARION *      CLOUDY    77  66  69 S9        30.00R
ESTHERVILLE    SUNNY     76  66  71 SW7       29.97R
FORT DODGE *   SUNNY     79  64  61 SE10      29.99S HX  81
MASON CITY     CLOUDY    78  65  63 S10       30.02R HX  80
FOREST CITY *    N/A     77  64  65 SW8       30.00R
WEBSTER CITY * CLOUDY    79  64  61 SE12      29.97S HX  81
IOWA FALLS *     N/A     76  66  70 SE3       30.01F
$$

IAZ007>011-017>019-026>030-037>042-050>054-066-201700-
   NORTHEAST IOWA

CITY           SKY/WX    TMP DP  RH WIND       PRES   REMARKS
CEDAR RAPIDS   LGT RAIN  70  67  90 NW8       29.98F
CHARLES CITY * CLOUDY    72  68  88 S6        30.02S
CLINTON *      CLOUDY    72  67  84 NW5       30.04F
DECORAH *      CLOUDY    72  66  83 SW6       30.02R
DUBUQUE        CLOUDY    71  65  81 SW6       30.04F
MONTICELLO *   CLOUDY    70  66  88 CALM      30.02F
OELWEIN *      CLOUDY    70  68  94 S7        30.03R
WATERLOO       CLOUDY    74  62  66 S6        29.99F
$$

IAZ064-065-067-068-078-201700-
   EAST CENTRAL IOWA

CITY           SKY/WX    TMP DP  RH WIND       PRES   REMARKS
DAVENPORT      CLOUDY    73  66  78 VRB3      30.04F
IOWA CITY      CLOUDY    72  67  84 N5        29.99F
MT. PLEASANT * PTSUNNY   73  66  78 SW6       29.95F
MUSCATINE *    CLOUDY    73  64  73 E5        30.00F
QUAD CITIES    CLOUDY    78  65  63 NW5       30.01F HX  80
$$

IAZ062-063-075>077-085>089-095>099-201700-
   SOUTHEAST IOWA

CITY           SKY/WX    TMP DP  RH WIND       PRES   REMARKS
BURLINGTON     CLOUDY    75  68  78 SE6       29.98F
FAIRFIELD *    CLOUDY    75  64  69 SW8       29.95F
FORT MADISON * PTSUNNY   75  70  83 SE8       29.98S
KEOKUK *       CLOUDY    75  68  78 SE10      29.97F
OSKALOOSA *    PTSUNNY   75  66  73 SW3       29.97S
CENTERVILLE *    N/A     79  66  65 CALM      29.96R HX  81
WASHINGTON *   CLOUDY    75  68  78 SW9       29.98F
$$

ABBREVIATIONS USED IN REMARKS
   TC - TEMPERATURES IN CELSIUS
  WCI - WIND CHILL INDEX
   HX - HEAT INDEX
  VSB - VISIBILITY
$$





USA.gov is the U.S. government's official web portal to all federal, state and local government web resources and services.